Lapse_Rate
5.9 4.5 5.1 5.6 5.3 5.5 4.0 3.3 3.9 3.7 3.4 4.1 4.2 4.1 3.8 4.3 4.3 4.3 3.9 3.9 3.5 3.7
4.8 4.8 5.4 5.0 5.9 5.9 4.0 3.4 2.7 3.1 3.9 3.8 3.6 3.9 4.2 4.5 4.7 4.0 3.6 3.1 2.8 3.0
5.6 5.7 5.2 5.1 4.6 3.1 3.0 2.1 1.7 1.8 2.9 2.9 2.7 3.3 3.7 4.2 4.1 3.8 3.2 3.0 2.8 3.3
6.3 5.8 5.0 5.2 4.7 3.5 3.0 1.6 1.3 1.1 2.2 2.8 3.4 3.5 3.1 2.7 2.9 2.6 2.4 2.2 3.2 3.4
5.3 5.0 5.2 5.3 4.9 3.9 2.8 1.8 1.6 2.2 3.1 2.9 2.9 3.0 2.5 1.9 1.7 1.9 1.9 1.8 2.1 2.9
5.9 6.0 6.0 5.4 4.8 4.4 4.3 2.8 2.4 3.2 2.9 2.8 2.9 2.9 3.1 2.8 2.4 2.3 2.4 2.6 2.6 3.3
5.0 5.0 5.6 5.4 4.8 4.5 4.6 4.3 4.1 4.0 3.3 3.2 3.0 3.4 3.2 2.8 2.5 2.1 2.4 2.7 2.7 3.6
5.3 4.8 4.9 5.0 5.1 5.1 5.1 5.0 5.0 5.0 4.1 4.2 4.3 3.9 3.4 3.3 3.3 3.4 3.3 3.0 3.3 3.5
5.0 5.0 4.6 4.8 4.8 5.1 5.5 5.3 5.3 4.9 4.5 4.0 4.3 2.3 2.4 3.3 3.6 3.9 3.8 3.1 3.0 2.3
5.4 4.8 5.1 5.1 4.9 4.4 4.1 4.4 4.4 4.6 4.5 4.3 4.1 1.6 2.0 2.2 3.9 3.4 3.1 2.9 2.4 2.2
5.2 4.9 5.0 5.0 4.9 4.8 4.8 4.5 4.1 4.4 4.5 4.3 4.2 2.0 2.1 2.1 2.5 2.2 2.2 2.5 2.6 2.7
4.9 5.1 5.7 5.2 4.5 4.9 4.8 4.4 3.8 4.2 4.0 4.0 3.8 2.0 2.3 2.1 2.4 2.5 2.5 3.1 3.3 3.5
5.2 4.9 4.8 5.5 5.6 5.3 4.7 3.9 3.7 3.8 3.9 3.7 3.9 1.9 2.2 2.2 3.8 3.8 3.3 3.5 3.1 3.2
5.9 5.4 5.1 5.1 5.5 5.5 4.8 4.9 3.5 4.0 4.0 4.2 4.2 3.7 2.7 2.5 3.0 3.6 3.8 2.5 2.3 2.4
Wind_Speed
9 8 11 15 14 10 7 6 6 7 8 11 9 6 6 6 5 6 4 6 4 3
6 7 5 7 8 6 7 6 9 10 9 8 8 8 8 5 6 5 5 5 5 2
3 3 4 5 7 4 5 7 8 9 7 7 7 8 7 4 5 5 4 3 3 3
1 2 2 2 3 5 5 6 7 8 8 8 8 8 6 6 5 5 5 3 4 5
1 2 2 2 2 3 5 5 6 7 8 7 7 7 7 7 6 6 5 5 4 5
2 1 1 1 1 2 4 6 5 5 6 8 8 7 7 7 6 5 5 5 4 4
4 3 2 1 3 3 5 6 6 5 6 6 6 6 6 6 5 4 4 5 4 4
3 2 2 1 1 3 4 5 7 7 6 6 7 5 6 6 6 6 6 5 5 3
6 4 3 4 5 5 5 5 6 6 6 6 4 8 8 7 6 6 7 7 6 5
7 7 6 5 5 6 6 5 6 7 7 8 7 12 11 7 5 6 5 5 5 5
7 7 8 7 7 7 7 8 7 8 8 7 6 15 14 12 4 3 3 4 7 7
10 9 8 8 9 8 7 7 8 7 8 9 8 15 13 10 6 6 7 7 7 7
9 9 9 9 9 8 7 6 5 7 8 10 9 16 16 13 5 7 5 7 6 9
8 8 8 8 7 6 7 7 8 9 9 10 10 11 19 19 8 6 6 5 6 5
Wind_Direction
208 207 216 222 229 230 217 209 192 189 176 187 191 194 184 182 187 184 203 202 196 185
220 225 230 223 226 206 188 190 187 200 188 188 174 183 182 177 177 184 180 185 185 180
261 266 223 209 213 194 185 166 173 176 170 169 168 173 172 160 165 175 168 178 164 177
288 274 268 245 199 204 179 151 170 162 166 172 171 165 151 145 166 170 159 166 213 199
358 323 296 278 250 177 185 178 184 164 163 166 177 173 158 154 170 174 173 180 200 211
10 348 29 5 346 244 183 175 169 161 167 172 172 168 176 170 175 180 187 188 201 210
325 341 359 79 169 175 189 178 175 170 170 175 167 175 174 172 168 164 177 187 206 221
315 291 290 249 207 196 197 196 187 180 172 175 180 177 176 184 182 183 186 182 193 205
320 299 246 220 205 201 203 192 187 191 189 184 192 155 175 178 184 192 193 187 188 164
315 296 280 262 231 215 211 198 204 204 193 198 191 165 185 200 190 193 196 185 178 174
321 293 278 261 248 228 215 205 201 203 202 201 194 177 182 183 197 174 196 200 195 187
331 311 279 252 244 241 230 217 214 207 199 200 186 178 186 181 190 195 202 208 207 196
313 303 291 273 249 242 234 231 223 218 211 209 203 181 189 187 199 207 188 196 201 202
300 291 286 278 265 244 236 235 222 223 220 212 212 187 195 195 197 205 192 191 192 194